This demonstration page uses our WeatherBlox Daily Observations layout. Learn more.

Left ArrowRight Arrow

Hourly Observations for November 14, 2018

Temp ( °F °C ) Dew Point ( °F °C ) Humidity (%) Winds ( mph kmh ) Pressure ( in mb ) Visibility ( mi km ) Precip ( " mm )
12:53 am 00:53 Clear 25 -3.9 20 -6.7 81 81 N 7 11 30.51 1033 10 16 0.00 0.00
1:53 am 01:53 Clear 25 -3.9 20 -6.7 81 81 NW 6 9 30.50 1033 10 16 0.00 0.00
2:53 am 02:53 Clear 24 -4.4 20 -6.7 84 84 N 6 9 30.49 1033 10 16 0.00 0.00
3:53 am 03:53 Clear 23 -5 19 -7.2 85 85 NNE 6 9 30.48 1032 10 16 0.00 0.00
4:53 am 04:53 Clear 23 -5 19 -7.2 85 85 N 5 7 30.46 1032 10 16 0.00 0.00
5:53 am 05:53 Clear 22 -5.6 19 -7.2 89 89 N 7 11 30.47 1032 10 16 0.00 0.00
6:53 am 06:53 Clear 22 -5.6 18 -7.8 85 85 NNW 6 9 30.49 1033 10 16 0.00 0.00
7:53 am 07:53 Sunny 24 -4.4 19 -7.2 81 81 N 5 7 30.50 1033 10 16 0.00 0.00
8:53 am 08:53 Sunny 33 0.6 23 -5 66 66 Calm 30.51 1033 10 16 0.00 0.00
9:53 am 09:53 Sunny 43 6.1 21 -6.1 42 42 W 3 6 30.49 1033 10 16 0.00 0.00
10:53 am 10:53 Sunny 49 9.4 20 -6.7 32 32 NNW 5 7 30.47 1032 10 16 0.00 0.00
11:53 am 11:53 Sunny 53 11.7 20 -6.7 27 27 VRB 6 9 30.44 1031 10 16 0.00 0.00
12:53 pm 12:53 Sunny 56 13.3 20 -6.7 24 24 W 8 13 30.39 1029 10 16 0.00 0.00
1:53 pm 13:53 Sunny 58 14.4 21 -6.1 24 24 VRB 5 7 30.34 1028 10 16 0.00 0.00
2:53 pm 14:53 Sunny 59 15 21 -6.1 23 23 NW 7 11 30.31 1026 10 16 0.00 0.00
3:53 pm 15:53 Sunny 59 15 21 -6.1 23 23 NW 8 13 30.29 1026 10 16 0.00 0.00
4:53 pm 16:53 Sunny 58 14.4 20 -6.7 23 23 WNW 5 7 30.29 1026 10 16 0.00 0.00
5:53 pm 17:53 Sunny 52 11.1 23 -5 32 32 SW 7 11 30.29 1026 10 16 0.00 0.00
6:53 pm 18:53 Clear 45 7.2 25 -3.9 46 46 SW 9 15 30.31 1026 10 16 0.00 0.00
7:53 pm 19:53 Clear 44 6.7 25 -3.9 47 47 SW 6 9 30.30 1026 10 16 0.00 0.00
8:53 pm 20:53 Clear 42 5.6 25 -3.9 51 51 SW 8 13 30.29 1026 10 16 0.00 0.00
9:53 pm 21:53 Clear 41 5 25 -3.9 53 53 SW 6 9 30.28 1025 10 16 0.00 0.00
10:53 pm 22:53 Clear 39 3.9 26 -3.3 60 60 SW 8 13 30.27 1025 10 16 0.00 0.00
11:53 pm 23:53 Clear 35 1.7 26 -3.3 70 70 Calm 30.26 1025 10 16 0.00 0.00

Powered by AerisWeather